EW3060 Weather Reports


Display with metric or nautical units.
time (UTC)temp
F
wind
direction
speed
MPH
gust
MPH
rain 1hr
in
rain 24hr
in
rain mn
in
humidity
%
barometer
mb
20240620001514 78 211 17.0 23.0 0.00 0.00 0.00 34 1000.4
20240620000015 79 220 10.0 23.0 0.00 0.00 0.00 34 1000.4
20240619234511 79 207 12.0 23.0 0.00 0.00 0.00 35 1000.6
20240619233011 79 218 13.0 25.0 0.00 0.00 0.00 33 1000.3
20240619231509 79 237 12.0 22.0 0.00 0.00 0.00 32 1000.7
20240619230008 79 226 13.0 25.0 0.00 0.00 0.00 33 1000.6
20240619224511 79 185 15.0 22.0 0.00 0.00 0.00 30 1000.7
20240619223030 79 207 17.0 25.0 0.00 0.00 0.00 32 1000.7
20240619221506 79 197 14.0 23.0 0.00 0.00 0.00 30 1000.8
20240619220007 80 190 14.0 24.0 0.00 0.00 0.00 31 1000.9
20240619214510 80 224 11.0 24.0 0.00 0.00 0.00 30 1001.0
20240619213006 81 214 13.0 22.0 0.00 0.00 0.00 30 1001.0
20240619211509 81 200 12.0 20.0 0.00 0.00 0.00 30 1001.1
20240619210004 81 192 9.0 20.0 0.00 0.00 0.00 28 1001.3
20240619204503 82 195 9.0 15.0 0.00 0.00 0.00 26 1001.2
20240619203001 82 231 8.0 19.0 0.00 0.00 0.00 26 1001.5
20240619201600 82 262 8.0 18.0 0.00 0.00 0.00 26 1001.6
20240619200058 82 199 2.0 11.0 0.00 0.00 0.00 26 1001.6
20240619194605 83 152 5.0 14.0 0.00 0.00 0.00 24 1001.7
20240619193053 82 204 5.0 10.0 0.00 0.00 0.00 21 1001.9
20240619191548 82 145 1.0 13.0 0.00 0.00 0.00 21 1001.7
20240619190044 83 232 1.0 7.0 0.00 0.00 0.00 21 1001.8